Regional Weather Roundup
Issued by NWS Sterling, VA

Home | Current Version | Previous Version | Graphics & Text | Print | Product List | Glossary On
Versions: 1 2 3 4 5 6 7 8 9 10 11 12 13 14 15 16 17 18 19 20 21 22 23 24 25 26 27 28 29 30 31 32 33 34 35 36 37 38 39 40 41 42 43 44 45 46 47 48 49 50
000
ASUS41 KLWX 271810
RWRLWX

REGIONAL WEATHER ROUNDUP
NATIONAL WEATHER SERVICE BALTIMORE MD/WASHINGTON DC
200 PM EDT FRI MAR 27 2015

Note: "FAIR" indicates few or no clouds below 12,000 feet
with no significant weather and/or obstructions to visibility.
 TC=TEMPERATURE CELSIUS

 * =Non NWS site. Station does not report precipitation (e.g. rain,
    snow, etc.), thunder, or fog.

DCZ001-MDZ009-015-VAZ040>042-051-053>054-271900-
WASHINGTON METRO

CITY           SKY/WX    TMP DP  RH WIND       PRES   REMARKS
WASHINGTON NAT CLOUDY    49  32  52 N15       29.81S
DULLES         CLOUDY    46  30  53 N12       29.80F
ANDREWS AFB    CLOUDY    44  35  70 N10       29.78F
FT BELVOIR     CLOUDY    46  32  59 NW8       29.81S
QUANTICO       CLOUDY    45  37  73 NW6       29.83F
COLLEGE PARK*  CLOUDY    46  32  57 N5        29.79F
LEESBURG*      CLOUDY    46  32  57 N10       29.81F
GAITHERSBURG*  CLOUDY    45  30  57 NW5       29.82S

$$

MDZ006>007-011-014-271900-
BALTIMORE METRO

CITY           SKY/WX    TMP DP  RH WIND       PRES   REMARKS
BWI AIRPORT    CLOUDY    46  30  53 N12       29.77F
MD SCIENCE CTR   N/A     47  29  49 MISG      29.80R
MARTIN STATE   CLOUDY    46  37  71 N3        29.81S
ANNAPOLIS      LGT RAIN  43  37  79 CALM      29.79F

$$

MDZ012-015-019>023-271900-
MARYLAND EASTERN SHORE

CITY           SKY/WX    TMP DP  RH WIND       PRES   REMARKS
OCEAN CITY     LGT RAIN  39  37  92 N8        29.79R FOG
SALISBURY      LGT RAIN  41  38  89 NW12      29.79R
BAY BRIDGE AP* DRIZZLE   43  36  75 N5        29.80R
CAMBRIDGE*     CLOUDY    41  36  81 N7        29.80R
EASTON*        LGT RAIN  41  39  93 N6        29.83S

$$

MDZ017>025-271900-
SOUTHERN MARYLAND

CITY           SKY/WX    TMP DP  RH WIND       PRES   REMARKS
PATUXENT RIVER LGT RAIN  39  35  86 N10       29.81S FOG
ST INIGOES     LGT RAIN  40  35  83 VRB7      29.80F
LEONARDTOWN*   CLOUDY    37  34  87 CALM      29.82F

$$

MDZ003>005-271900-
NORTH CENTRAL MARYLAND

CITY           SKY/WX    TMP DP  RH WIND       PRES   REMARKS
FREDERICK*     PTSUNNY   48  23  37 N13       29.81F
HAGERSTOWN APT CLOUDY    46  25  43 NW14      29.78F
WESTMINSTER*   CLOUDY    43  28  56 N9        29.79R

$$

MDZ501>502-271900-
WESTERN MARYLAND

CITY           SKY/WX    TMP DP  RH WIND       PRES   REMARKS
OAKLAND*       CLOUDY    30 N/A N/A W9        29.75S WCI  22
CUMBERLAND*    PTSUNNY   45  25  45 W10G18    29.85S

$$

VAZ025>031-271900-
SHENANDOAH VALLEY

CITY           SKY/WX    TMP DP  RH WIND       PRES   REMARKS
WINCHESTER*    CLOUDY    45  27  49 NW9       29.78F
FRONT ROYAL*   CLOUDY    45  30  57 NW8       29.78F
LURAY*         CLOUDY    46  32  57 N10G17    29.79S
NEW MARKET*    CLOUDY    45  29  55 N8G16     29.78F
STAUNTON*      CLOUDY    46  31  56 N6        29.79F
WAYNESBORO*    CLOUDY    41  34  74 NE5       29.77S

$$

WVZ021-048>050-054>055-271900-
EASTERN WEST VIRGINIA PANHANDLE

CITY           SKY/WX    TMP DP  RH WIND       PRES   REMARKS
MARTINSBURG    CLOUDY    46  26  45 N9        29.81S
PETERSBURG*    CLOUDY    44  23  43 NW10      29.81F

$$

VAZ036>039-050-271900-
CENTRAL FOOTHILLS

CITY           SKY/WX    TMP DP  RH WIND       PRES   REMARKS
CHARLOTTESVILL CLOUDY    43  37  79 E5        29.79F
CULPEPER*      CLOUDY    46  34  61 N7        29.80F
ORANGE*        CLOUDY    45  36  70 NE6       29.81F
GORDONSVILLE*  CLOUDY    43  35  74 E5        29.80F
WARRENTON*     CLOUDY    46  37  70 N12       29.80S

$$

VAZ055>057-271900-
NORTH AND CENTRAL PIEDMONT

CITY           SKY/WX    TMP DP  RH WIND       PRES   REMARKS
FREDERICKSBRG* CLOUDY    43  38  81 NE3       29.81F
STAFFORD*      CLOUDY    42  36  80 CALM      29.85F

$$

NCZ024-NYZ072-PAZ021-071-VAZ022-071-271900-
OTHER REGIONAL OBSERVATIONS

CITY           SKY/WX    TMP DP  RH WIND       PRES   REMARKS
NEW YORK CITY  CLOUDY    44  33  65 CALM      29.76S
PHILADELPHIA   CLOUDY    45  29  53 N14       29.76F
PITTSBURGH     FLURRIES  33  25  72 NW13      29.87F WCI  24
ROANOKE        CLOUDY    45  32  60 NW9       29.81F
RICHMOND       LGT RAIN  42  37  82 N12       29.82F
RALEIGH        CLOUDY    46  42  86 NE14G25   29.76F

$$

ANZ530>537-271900-
MARINE OBSERVATIONS

STATION/POSITION TIME  TEMP    WIND        PRES
                       AIR SEA DIR/SP/G
                 (UTC) (F)     (DEG/KT/KT) (MB)
THOMAS PT LIGHT  1800                        N/A
BALT KEY BRIDGE  1700   44     360/ 10/ 11 1008.4F
COVE POINT       1700   38      20/ 14/ 17 1009.1F
LEWISETTA        1700   40 47              1009.4F
SOLOMONS ISLAND  1700      44                N/A
PINEY POINT      1706          360/ 10/ 11   N/A

$$




USA.gov is the U.S. government's official web portal to all federal, state and local government web resources and services.